Погода в Владимировке

Россия / Липецкая область     52°28′39″N   38°44′32″E
темп.,
°C
ветер,
м/с
пор.,
м/с
влажн.,
%
обл.,
%
осадки,
мм/ч
давл.,
гПа
погр.,
м
8 августа, пн
пн800:00+22св2241100 0.0 101814
03:00+22в234281 0.0 101842
06:00+21в224599 0.0 101817
09:00+23ю1147100 0.0 1019111
12:00+28юв223346 0.0 1019542
15:00+31ю232553 0.0 10182787
18:00+30ю123617 0.0 101842
21:00+24ююв22385 0.0 101812
9 августа, вт
вт900:00+21юв2240100 0.0 101916
03:00+20ююв334394 0.0 101842
06:00+20юв115170 0.0 101911
09:00+25з124055 0.0 1019371
12:00+29в443193 0.0 1018788
15:00+30ю553074 0.0 10171456
18:00+29зсз233973 0.0 1016103
21:00+21с496296 0.0 1017176
10 августа, ср
ср1000:00+19ссв51074100 0.0 1018260
03:00+19ссв487781 0.0 1018301
06:00+17ссв4989100 0.0 1018291
09:00+22св5665100 0.0 1018549
12:00+23ссв666298 0.0 1018742
15:00+24св6760100 0.0 1019803
18:00+23ссв6864100 0.4 1019690
21:00+19ссв51171100 0.4 1020405
11 августа, чт
чт1100:00+18св61373100 0.0 1021496
03:00+17св61375100 0.0 1021433
06:00+16св6136394 0.0 1022424
09:00+20св794696 0.0 1023701
12:00+24св673610 0.0 10231076
15:00+26св66335 0.0 10221317
18:00+25ссв46390 0.0 1022750
21:00+19св49510 0.0 1023156
12 августа, пт
пт1200:00+18св411540 0.0 1024208
03:00+16св39628 0.0 1024164
06:00+15св37651 0.0 1025156
09:00+22всв46450 0.0 1025599
12:00+26всв45335 0.0 10241355
15:00+27св44293 0.0 10231587
18:00+26св463539 0.0 1022343
21:00+20св464791 0.0 102386